| time (UTC) | temp F | wind direction | speed MPH | gust MPH | rain 1hr in | rain 24hr in | rain mn in | humidity % | barometer mb |
| 20260510142019 | 56 | 77 | 2.0 | 4.0 | 0.00 | 0.00 | 0.00 | 80 | 1028.4 |
| 20260510141017 | 56 | 66 | 1.0 | 2.0 | 0.00 | 0.00 | 0.00 | 79 | 1028.3 |
| 20260510140034 | 56 | 75 | 1.0 | 2.0 | 0.00 | 0.00 | 0.00 | 78 | 1028.2 |
| 20260510135052 | 56 | 92 | 2.0 | 3.0 | 0.00 | 0.00 | 0.00 | 78 | 1028.2 |
| 20260510134030 | 57 | 90 | 1.0 | 3.0 | 0.00 | 0.00 | 0.00 | 78 | 1028.2 |
| 20260510133047 | 57 | 105 | 2.0 | 3.0 | 0.00 | 0.00 | 0.00 | 76 | 1028.2 |
| 20260510132025 | 57 | 103 | 2.0 | 4.0 | 0.00 | 0.00 | 0.00 | 76 | 1028.2 |
| 20260510131023 | 57 | 102 | 2.0 | 4.0 | 0.00 | 0.00 | 0.00 | 76 | 1028.2 |
| 20260510130020 | 57 | 69 | 1.0 | 2.0 | 0.00 | 0.00 | 0.00 | 76 | 1028.2 |
| 20260510125038 | 57 | 85 | 1.0 | 3.0 | 0.00 | 0.00 | 0.00 | 76 | 1028.2 |
| 20260510124035 | 57 | 121 | 0.0 | 2.0 | 0.00 | 0.00 | 0.00 | 76 | 1028.2 |
| 20260510123033 | 57 | 96 | 1.0 | 2.0 | 0.00 | 0.00 | 0.00 | 76 | 1028.4 |
| 20260510122030 | 57 | 102 | 1.0 | 3.0 | 0.00 | 0.00 | 0.00 | 76 | 1028.3 |
| 20260510121028 | 57 | 115 | 1.0 | 2.0 | 0.00 | 0.00 | 0.00 | 76 | 1028.3 |
| 20260510120026 | 57 | 121 | 0.0 | 2.0 | 0.00 | 0.00 | 0.00 | 76 | 1028.3 |
| 20260510115023 | 57 | 162 | 0.0 | 2.0 | 0.00 | 0.00 | 0.00 | 76 | 1028.2 |
| 20260510114021 | 57 | 181 | 0.0 | 2.0 | 0.00 | 0.00 | 0.00 | 76 | 1028.2 |
| 20260510113018 | 57 | 158 | 0.0 | 2.0 | 0.00 | 0.00 | 0.00 | 76 | 1028.1 |
| 20260510112016 | 57 | 144 | 0.0 | 2.0 | 0.00 | 0.00 | 0.00 | 76 | 1028.1 |
| 20260510111033 | 57 | 140 | 0.0 | 1.0 | 0.00 | 0.00 | 0.00 | 76 | 1028.0 |
| 20260510110031 | 57 | 151 | 1.0 | 2.0 | 0.00 | 0.00 | 0.00 | 75 | 1028.0 |
| 20260510105029 | 58 | 175 | 1.0 | 2.0 | 0.00 | 0.00 | 0.00 | 75 | 1027.9 |
| 20260510104027 | 58 | 151 | 0.0 | 1.0 | 0.00 | 0.00 | 0.00 | 74 | 1028.0 |
| 20260510103024 | 58 | 199 | 1.0 | 2.0 | 0.00 | 0.00 | 0.00 | 75 | 1028.0 |
| 20260510102042 | 57 | 188 | 1.0 | 2.0 | 0.00 | 0.00 | 0.00 | 76 | 1028.0 |
| 20260510101019 | 57 | 0.0 | 1.0 | 0.00 | 0.00 | 0.00 | 75 | 1027.9 | |
| 20260510100017 | 58 | 172 | 0.0 | 1.0 | 0.00 | 0.00 | 0.00 | 73 | 1027.7 |
| 20260510095034 | 59 | 149 | 0.0 | 2.0 | 0.00 | 0.00 | 0.00 | 72 | 1027.8 |
| 20260510094032 | 60 | 167 | 1.0 | 2.0 | 0.00 | 0.00 | 0.00 | 70 | 1027.7 |
| 20260510093050 | 60 | 171 | 1.0 | 2.0 | 0.00 | 0.00 | 0.00 | 69 | 1027.7 |
| 20260510092027 | 61 | 179 | 2.0 | 3.0 | 0.00 | 0.00 | 0.00 | 69 | 1027.5 |
| 20260510091025 | 60 | 179 | 1.0 | 2.0 | 0.00 | 0.00 | 0.00 | 70 | 1027.4 |
| 20260510090043 | 60 | 198 | 1.0 | 2.0 | 0.00 | 0.00 | 0.00 | 70 | 1027.3 |
| 20260510085020 | 61 | 179 | 1.0 | 2.0 | 0.00 | 0.00 | 0.00 | 69 | 1027.3 |
| 20260510084018 | 61 | 175 | 2.0 | 2.0 | 0.00 | 0.00 | 0.00 | 69 | 1027.2 |
| 20260510083035 | 61 | 208 | 1.0 | 2.0 | 0.00 | 0.00 | 0.00 | 69 | 1027.0 |
| 20260510082033 | 62 | 187 | 1.0 | 2.0 | 0.00 | 0.00 | 0.00 | 68 | 1026.9 |
| 20260510081051 | 62 | 187 | 1.0 | 2.0 | 0.00 | 0.00 | 0.00 | 68 | 1026.9 |
| 20260510080028 | 62 | 197 | 1.0 | 2.0 | 0.00 | 0.00 | 0.00 | 68 | 1026.7 |
| 20260510075046 | 63 | 224 | 0.0 | 2.0 | 0.00 | 0.00 | 0.00 | 67 | 1026.6 |
| 20260510074023 | 63 | 224 | 0.0 | 2.0 | 0.00 | 0.00 | 0.00 | 65 | 1026.5 |
| 20260510073021 | 64 | 0.0 | 1.0 | 0.00 | 0.00 | 0.00 | 63 | 1026.5 | |
| 20260510072018 | 66 | 198 | 0.0 | 2.0 | 0.00 | 0.00 | 0.00 | 61 | 1026.3 |
| 20260510071016 | 67 | 184 | 1.0 | 3.0 | 0.00 | 0.00 | 0.00 | 59 | 1026.3 |
| 20260510070054 | 67 | 184 | 1.0 | 2.0 | 0.00 | 0.00 | 0.00 | 57 | 1026.1 |
| 20260510065032 | 68 | 180 | 2.0 | 3.0 | 0.00 | 0.00 | 0.00 | 56 | 1026.1 |
| 20260510064029 | 68 | 171 | 2.0 | 3.0 | 0.00 | 0.00 | 0.00 | 56 | 1026.1 |
| 20260510063027 | 68 | 170 | 2.0 | 4.0 | 0.00 | 0.00 | 0.00 | 55 | 1025.9 |
| 20260510062024 | 69 | 176 | 2.0 | 5.0 | 0.00 | 0.00 | 0.00 | 54 | 1025.9 |
| 20260510061042 | 69 | 183 | 2.0 | 4.0 | 0.00 | 0.00 | 0.00 | 54 | 1025.9 |
| 20260510060020 | 69 | 175 | 3.0 | 6.0 | 0.00 | 0.00 | 0.00 | 54 | 1025.9 |
| 20260510055017 | 69 | 180 | 4.0 | 6.0 | 0.00 | 0.00 | 0.00 | 53 | 1025.8 |
| 20260510054035 | 70 | 204 | 2.0 | 5.0 | 0.00 | 0.00 | 0.00 | 52 | 1025.9 |
| 20260510053032 | 69 | 144 | 2.0 | 6.0 | 0.00 | 0.00 | 0.00 | 53 | 1025.8 |
| 20260510052030 | 70 | 173 | 2.0 | 6.0 | 0.00 | 0.00 | 0.00 | 52 | 1025.9 |
| 20260510051049 | 69 | 159 | 2.0 | 4.0 | 0.00 | 0.00 | 0.00 | 53 | 1025.8 |
| 20260510050045 | 69 | 171 | 3.0 | 5.0 | 0.00 | 0.00 | 0.00 | 54 | 1025.9 |
| 20260510045023 | 69 | 179 | 4.0 | 7.0 | 0.00 | 0.00 | 0.00 | 53 | 1025.8 |
| 20260510044020 | 70 | 126 | 2.0 | 5.0 | 0.00 | 0.00 | 0.00 | 53 | 1025.9 |
| 20260510043018 | 70 | 178 | 2.0 | 6.0 | 0.00 | 0.00 | 0.00 | 52 | 1026.0 |
| 20260510042035 | 70 | 189 | 2.0 | 5.0 | 0.00 | 0.00 | 0.00 | 53 | 1025.9 |
| 20260510041034 | 70 | 162 | 2.0 | 5.0 | 0.00 | 0.00 | 0.00 | 53 | 1026.1 |
| 20260510040031 | 69 | 152 | 2.0 | 4.0 | 0.00 | 0.00 | 0.00 | 55 | 1026.0 |
| 20260510035028 | 69 | 207 | 1.0 | 4.0 | 0.00 | 0.00 | 0.00 | 55 | 1026.2 |
| 20260510034026 | 69 | 158 | 2.0 | 6.0 | 0.00 | 0.00 | 0.00 | 55 | 1026.2 |
| 20260510033044 | 68 | 163 | 3.0 | 7.0 | 0.00 | 0.00 | 0.00 | 56 | 1026.3 |
| 20260510032022 | 68 | 197 | 3.0 | 6.0 | 0.00 | 0.00 | 0.00 | 56 | 1026.4 |
| 20260510031019 | 68 | 192 | 1.0 | 4.0 | 0.00 | 0.00 | 0.00 | 56 | 1026.5 |
| 20260510030016 | 68 | 133 | 1.0 | 5.0 | 0.00 | 0.00 | 0.00 | 56 | 1026.6 |
| 20260510025034 | 68 | 66 | 2.0 | 5.0 | 0.00 | 0.00 | 0.00 | 57 | 1026.8 |
| 20260510024032 | 67 | 169 | 3.0 | 6.0 | 0.00 | 0.00 | 0.00 | 58 | 1026.9 |
| 20260510023029 | 67 | 170 | 3.0 | 6.0 | 0.00 | 0.00 | 0.00 | 57 | 1027.1 |
| 20260510022027 | 67 | 162 | 3.0 | 6.0 | 0.00 | 0.00 | 0.00 | 58 | 1027.2 |
| 20260510021024 | 66 | 164 | 2.0 | 5.0 | 0.00 | 0.00 | 0.00 | 59 | 1027.4 |
| 20260510020042 | 66 | 125 | 2.0 | 5.0 | 0.00 | 0.00 | 0.00 | 59 | 1027.5 |
| 20260510015019 | 66 | 130 | 2.0 | 5.0 | 0.00 | 0.00 | 0.00 | 60 | 1027.7 |
| 20260510014017 | 65 | 163 | 4.0 | 7.0 | 0.00 | 0.00 | 0.00 | 61 | 1027.8 |
| 20260510013035 | 66 | 142 | 3.0 | 7.0 | 0.00 | 0.00 | 0.00 | 61 | 1027.9 |
| 20260510012032 | 66 | 149 | 2.0 | 5.0 | 0.00 | 0.00 | 0.00 | 61 | 1028.0 |
| 20260510011050 | 65 | 163 | 1.0 | 4.0 | 0.00 | 0.00 | 0.00 | 61 | 1028.1 |
| 20260510010028 | 64 | 139 | 1.0 | 3.0 | 0.00 | 0.00 | 0.00 | 64 | 1028.1 |
| 20260510005025 | 63 | 155 | 3.0 | 7.0 | 0.00 | 0.00 | 0.00 | 65 | 1028.2 |
| 20260510004023 | 63 | 168 | 1.0 | 3.0 | 0.00 | 0.00 | 0.00 | 65 | 1028.3 |
| 20260510003021 | 62 | 44 | 1.0 | 4.0 | 0.00 | 0.00 | 0.00 | 67 | 1028.3 |
| 20260510002018 | 61 | 110 | 2.0 | 4.0 | 0.00 | 0.00 | 0.00 | 69 | 1028.3 |
| 20260510001036 | 60 | 99 | 3.0 | 6.0 | 0.00 | 0.00 | 0.00 | 70 | 1028.4 |
| 20260510000033 | 61 | 57 | 2.0 | 4.0 | 0.00 | 0.00 | 0.00 | 70 | 1028.3 |
| 20260509235031 | 59 | 69 | 3.0 | 4.0 | 0.00 | 0.00 | 0.00 | 72 | 1028.2 |
| 20260509234029 | 58 | 57 | 2.0 | 5.0 | 0.00 | 0.00 | 0.00 | 74 | 1028.3 |
| 20260509233046 | 58 | 77 | 2.0 | 4.0 | 0.00 | 0.00 | 0.00 | 75 | 1028.2 |
| 20260509232025 | 58 | 109 | 1.0 | 3.0 | 0.00 | 0.00 | 0.00 | 76 | 1028.3 |
| 20260509231041 | 57 | 93 | 1.0 | 3.0 | 0.00 | 0.00 | 0.00 | 78 | 1028.2 |
| 20260509230019 | 55 | 131 | 1.0 | 3.0 | 0.00 | 0.00 | 0.00 | 80 | 1028.1 |
| 20260509225016 | 54 | 95 | 1.0 | 3.0 | 0.00 | 0.00 | 0.00 | 81 | 1027.9 |
| 20260509224034 | 53 | 106 | 1.0 | 3.0 | 0.00 | 0.00 | 0.00 | 82 | 1027.8 |
| 20260509223052 | 53 | 122 | 1.0 | 3.0 | 0.00 | 0.00 | 0.00 | 83 | 1027.5 |
| 20260509222035 | 52 | 85 | 0.0 | 2.0 | 0.00 | 0.00 | 0.00 | 85 | 1027.5 |
| 20260509221027 | 50 | 18 | 2.0 | 3.0 | 0.00 | 0.00 | 0.00 | 90 | 1027.4 |
| 20260509220024 | 49 | 16 | 1.0 | 2.0 | 0.00 | 0.00 | 0.00 | 95 | 1027.2 |
| 20260509215022 | 47 | 130 | 1.0 | 3.0 | 0.00 | 0.00 | 0.00 | 96 | 1027.1 |
| 20260509214020 | 46 | 105 | 1.0 | 3.0 | 0.00 | 0.00 | 0.00 | 96 | 1027.1 |
| 20260509213017 | 46 | 93 | 0.0 | 2.0 | 0.00 | 0.00 | 0.00 | 96 | 1027.0 |
| 20260509212035 | 46 | 80 | 0.0 | 2.0 | 0.00 | 0.00 | 0.00 | 96 | 1027.0 |
| 20260509211032 | 45 | 124 | 0.0 | 2.0 | 0.00 | 0.00 | 0.00 | 96 | 1026.9 |
| 20260509210030 | 44 | 132 | 1.0 | 2.0 | 0.00 | 0.00 | 0.00 | 96 | 1026.9 |
| 20260509205028 | 44 | 158 | 0.0 | 2.0 | 0.00 | 0.00 | 0.00 | 96 | 1026.9 |
| 20260509204045 | 45 | 195 | 1.0 | 3.0 | 0.00 | 0.00 | 0.00 | 96 | 1026.7 |
| 20260509203023 | 45 | 167 | 2.0 | 3.0 | 0.00 | 0.00 | 0.00 | 95 | 1026.6 |
| 20260509202041 | 45 | 187 | 1.0 | 2.0 | 0.00 | 0.00 | 0.00 | 95 | 1026.6 |
| 20260509201038 | 45 | 186 | 2.0 | 3.0 | 0.00 | 0.00 | 0.00 | 95 | 1026.4 |
| 20260509200056 | 45 | 160 | 2.0 | 3.0 | 0.00 | 0.00 | 0.00 | 95 | 1026.3 |
| 20260509195033 | 44 | 175 | 0.0 | 2.0 | 0.00 | 0.00 | 0.00 | 95 | 1026.1 |
| 20260509194112 | 45 | 49 | 0.0 | 2.0 | 0.00 | 0.00 | 0.00 | 94 | 1026.1 |
| 20260509193029 | 45 | 41 | 0.0 | 2.0 | 0.00 | 0.00 | 0.00 | 94 | 1026.0 |
| 20260509192026 | 45 | 341 | 1.0 | 2.0 | 0.00 | 0.00 | 0.00 | 94 | 1025.8 |
| 20260509191024 | 45 | 353 | 2.0 | 3.0 | 0.00 | 0.00 | 0.00 | 94 | 1025.7 |
| 20260509190021 | 44 | 301 | 0.0 | 1.0 | 0.00 | 0.00 | 0.00 | 93 | 1025.6 |
| 20260509185019 | 45 | 0.0 | 1.0 | 0.00 | 0.00 | 0.00 | 93 | 1025.5 | |
| 20260509184016 | 45 | 24 | 0.0 | 2.0 | 0.00 | 0.00 | 0.00 | 93 | 1025.4 |
| 20260509183034 | 45 | 47 | 0.0 | 2.0 | 0.00 | 0.00 | 0.00 | 93 | 1025.3 |
| 20260509182032 | 47 | 320 | 0.0 | 1.0 | 0.00 | 0.00 | 0.00 | 93 | 1025.2 |
| 20260509181049 | 47 | 295 | 1.0 | 2.0 | 0.00 | 0.00 | 0.00 | 94 | 1025.1 |
| 20260509180047 | 46 | 306 | 1.0 | 2.0 | 0.00 | 0.00 | 0.00 | 94 | 1024.9 |
| 20260509175025 | 46 | 109 | 1.0 | 2.0 | 0.00 | 0.00 | 0.00 | 93 | 1025.1 |
| 20260509174022 | 46 | 349 | 1.0 | 2.0 | 0.00 | 0.00 | 0.00 | 94 | 1025.0 |
| 20260509173040 | 46 | 328 | 1.0 | 2.0 | 0.00 | 0.00 | 0.00 | 94 | 1025.0 |
| 20260509172058 | 47 | 14 | 0.0 | 2.0 | 0.00 | 0.00 | 0.00 | 94 | 1025.0 |
| 20260509171035 | 47 | 48 | 0.0 | 1.0 | 0.00 | 0.00 | 0.00 | 94 | 1025.2 |
| 20260509170033 | 47 | 0.0 | 0.0 | 0.00 | 0.00 | 0.00 | 94 | 1025.1 | |
| 20260509165030 | 46 | 0.0 | 1.0 | 0.00 | 0.00 | 0.00 | 93 | 1025.1 | |
| 20260509164028 | 47 | 0.0 | 1.0 | 0.00 | 0.00 | 0.00 | 94 | 1025.1 | |
| 20260509163025 | 48 | 112 | 0.0 | 1.0 | 0.00 | 0.00 | 0.00 | 94 | 1025.1 |
| 20260509162023 | 47 | 61 | 0.0 | 1.0 | 0.00 | 0.00 | 0.00 | 93 | 1025.0 |
| 20260509160019 | 48 | 148 | 0.0 | 2.0 | 0.00 | 0.00 | 0.00 | 93 | 1025.0 |
| 20260509155016 | 48 | 352 | 0.0 | 2.0 | 0.00 | 0.00 | 0.00 | 92 | 1025.1 |
| 20260509154034 | 48 | 337 | 0.0 | 1.0 | 0.00 | 0.00 | 0.00 | 92 | 1025.1 |
| 20260509153031 | 48 | 150 | 0.0 | 1.0 | 0.00 | 0.00 | 0.00 | 93 | 1025.0 |
| 20260509152029 | 48 | 0.0 | 0.0 | 0.00 | 0.00 | 0.00 | 91 | 1025.1 | |
| 20260509151027 | 48 | 153 | 0.0 | 2.0 | 0.00 | 0.00 | 0.00 | 92 | 1025.0 |
| 20260509150024 | 47 | 0.0 | 1.0 | 0.00 | 0.00 | 0.00 | 90 | 1025.1 | |
| 20260509145022 | 48 | 0.0 | 0.0 | 0.00 | 0.00 | 0.00 | 89 | 1025.0 | |
| 20260509144019 | 49 | 153 | 0.0 | 1.0 | 0.00 | 0.00 | 0.00 | 89 | 1025.2 |
| 20260509143017 | 49 | 197 | 0.0 | 1.0 | 0.00 | 0.00 | 0.00 | 89 | 1025.1 |